TimeCST,TemperatureF,Dew PointF,Humidity,Sea Level PressureIn,VisibilityMPH,Wind Direction,Wind SpeedMPH,Gust SpeedMPH,PrecipitationIn,Events,Conditions,WindDirDegrees,DateUTC
12:54 AM,30.0,23.0,75,30.30,10.0,SSE,6.9,-,N/A,,Overcast,150,2013-03-09 06:54:00
1:54 AM,30.9,24.1,76,30.27,10.0,SE,12.7,-,N/A,,Overcast,140,2013-03-09 07:54:00
2:54 AM,32.0,25.0,75,30.24,10.0,SE,12.7,-,N/A,,Overcast,140,2013-03-09 08:54:00
3:54 AM,32.0,25.0,75,30.21,10.0,SE,15.0,-,N/A,,Overcast,130,2013-03-09 09:54:00
4:54 AM,33.1,26.1,75,30.23,10.0,SSE,12.7,-,N/A,,Overcast,150,2013-03-09 10:54:00
5:44 AM,33.8,26.6,75,30.19,10.0,SSE,15.0,-,0.00,,Light Ice Pellets,160,2013-03-09 11:44:00
5:54 AM,33.8,26.6,75,30.19,9.0,SSE,12.7,-,N/A,,Light Ice Pellets,160,2013-03-09 11:54:00
6:54 AM,34.0,30.0,85,30.20,6.0,SSE,16.1,24.2,0.03,Rain,Light Rain,150,2013-03-09 12:54:00
7:40 AM,33.8,30.2,87,30.16,7.0,SSE,16.1,-,0.02,Rain,Light Rain,150,2013-03-09 13:40:00
7:54 AM,34.0,30.9,89,30.19,7.0,SSE,12.7,-,0.02,,Overcast,160,2013-03-09 13:54:00
8:54 AM,35.1,30.0,82,30.17,8.0,SSE,15.0,21.9,N/A,,Overcast,160,2013-03-09 14:54:00
9:54 AM,36.0,30.0,79,30.12,9.0,SSE,20.7,28.8,0.00,,Overcast,150,2013-03-09 15:54:00
10:54 AM,36.0,30.0,79,30.10,9.0,SSE,19.6,26.5,N/A,,Overcast,160,2013-03-09 16:54:00
11:54 AM,37.0,30.0,76,30.07,9.0,South,18.4,-,N/A,,Overcast,170,2013-03-09 17:54:00
12:54 PM,37.0,30.0,76,30.04,10.0,SSE,11.5,-,N/A,,Overcast,160,2013-03-09 18:54:00
1:54 PM,36.0,30.0,79,30.00,10.0,SSE,13.8,-,0.00,,Overcast,150,2013-03-09 19:54:00
2:44 PM,35.6,30.2,81,29.95,8.0,SSE,13.8,-,0.00,Rain,Light Rain,150,2013-03-09 20:44:00
2:54 PM,36.0,30.9,82,29.97,8.0,SSE,12.7,-,0.00,Rain,Light Rain,150,2013-03-09 20:54:00
3:54 PM,36.0,32.0,86,29.94,10.0,SSE,12.7,-,0.01,,Overcast,150,2013-03-09 21:54:00
4:54 PM,37.9,33.1,83,29.90,10.0,SSE,16.1,-,0.00,,Overcast,150,2013-03-09 22:54:00
5:54 PM,39.0,32.0,76,29.89,10.0,SSE,12.7,-,N/A,,Overcast,150,2013-03-09 23:54:00
6:54 PM,39.0,32.0,76,29.90,10.0,SSE,13.8,20.7,N/A,,Overcast,150,2013-03-10 00:54:00
7:54 PM,39.0,33.1,79,29.90,10.0,SW,3.5,-,N/A,,Overcast,220,2013-03-10 01:54:00
8:54 PM,37.9,33.1,83,29.89,10.0,SSE,5.8,-,N/A,,Overcast,160,2013-03-10 02:54:00
9:54 PM,37.9,33.1,83,29.88,6.0,South,4.6,-,0.00,Rain,Light Rain,170,2013-03-10 03:54:00
10:54 PM,37.0,34.0,89,29.86,9.0,SE,6.9,-,0.05,Rain,Light Rain,140,2013-03-10 04:54:00
11:54 PM,39.0,34.0,82,29.82,10.0,SSE,5.8,-,0.00,Rain,Light Rain,150,2013-03-10 05:54:00